Regional Weather Roundup
Issued by NWS

Home | Current Version | Previous Version | Graphics & Text | Print | Product List | Glossary On
Versions: 1 2 3 4 5 6 7 8 9 10 11 12 13 14 15 16 17 18 19 20 21 22 23 24 25 26 27 28 29 30 31 32 33 34 35 36 37 38 39 40 41 42 43 44 45 46 47 48 49 50
000
ASUS43 KBIS 241702
RWRND

NORTH DAKOTA REGIONAL WEATHER ROUNDUP
NATIONAL WEATHER SERVICE BISMARCK ND
1100 AM CST FRI NOV 24 2017

NOTE: "FAIR" INDICATES FEW OR NO CLOUDS BELOW 12,000 FEET WITH NO
SIGNIFICANT WEATHER AND/OR OBSTRUCTIONS TO VISIBILITY.


NDZ001>003-009>011-017-241800-
NORTHWEST NORTH DAKOTA

CITY           SKY/WX    TMP DP  RH WIND       PRES   REMARKS
WILLISTON      SUNNY     45  37  73 W22G28    29.66R
MINOT          SUNNY     48  37  65 W28G37    29.56R
MINOT AFB      SUNNY     46  37  73 NW30G40   29.54R
$$

NDZ018>021-031>035-040>046-241800-
SOUTHWEST NORTH DAKOTA

CITY           SKY/WX    TMP DP  RH WIND       PRES   REMARKS
BISMARCK       PTSUNNY   49  38  65 NW21G28   29.63R
DICKINSON      PTSUNNY   45  38  76 W23       29.67R
GARRISON         N/A     44  38  79 NW18G24   29.61R
HETTINGER ARPT CLOUDY    45  37  73 NW21G29   29.73R
$$

NDZ004>008-012>016-024-026-027-054-241800-
NORTHEAST NORTH DAKOTA

CITY           SKY/WX    TMP DP  RH WIND       PRES   REMARKS
GRAND FORKS    CLOUDY    40  36  86 NW15      29.40R
GRND FRKS AFB  MOSUNNY   41  35  80 NW14      29.40R
DEVILS LAKE    MOSUNNY   40  36  86 W18       29.48R
$$

NDZ022-023-025-028>030-036>039-047>053-241800-
SOUTHEAST NORTH DAKOTA

CITY           SKY/WX    TMP DP  RH WIND       PRES   REMARKS
FARGO          LGT RAIN  43  41  93 N15       29.42R
JAMESTOWN      CLOUDY    45  41  86 NW21G29   29.50R
$$




USA.gov is the U.S. government's official web portal to all federal, state and local government web resources and services.